Location: Banios
(43.0451°N, 0.2335°E)
Time: 08:54:13
(UTC+00:00)

A-11 Canister half - Pass Details

Date: 17 May 2021
Orbit: 1527 x 1681 km, 47.3° (Epoch: 22 June)

Event Time Altitude Azimuth Distance (km) Brightness Sun altitude
Rises 09:42:40 0° 261° (W) 4,724 11.3 53.5°
Reaches altitude 10° 09:45:43 10° 263° (W) 3,758 10.9 54.0°
Maximum altitude 09:55:17 74° 349° (N) 1,662 10.0 55.4°
Drops below altitude 10° 10:05:13 10° 74° (ENE) 3,886 11.6 56.9°
Sets 10:08:26 0° 77° (ENE) 4,891 11.9 57.4°
